DW2745 Weather Reports


time (UTC)temp
F
wind
direction
speed
knots
gust
knots
rain 1hr
in
rain 24hr
in
rain mn
in
humidity
%
barometer
mb
20260505100550 62 183 3.5 7.0 0.00 0.00 0.00 71 999.8
20260505100052 62 155 3.5 8.7 0.00 0.00 0.00 72 999.7
20260505095550 62 184 4.3 8.7 0.00 0.00 0.00 72 999.6
20260505095049 62 180 3.5 9.6 0.00 0.00 0.00 73 999.7
20260505094550 62 193 4.3 9.6 0.00 0.00 0.00 73 999.7
20260505094049 62 173 2.6 11.3 0.00 0.00 0.00 73 999.7
20260505093549 62 152 4.3 11.3 0.00 0.00 0.00 73 999.7
20260505093049 62 143 2.6 8.7 0.00 0.00 0.00 74 999.6
20260505092547 61 145 4.3 7.8 0.00 0.00 0.00 74 999.6
20260505092049 61 158 2.6 8.7 0.00 0.00 0.00 75 999.8
20260505091546 61 212 3.5 8.7 0.00 0.00 0.00 75 999.9
20260505091050 61 146 2.6 7.8 0.00 0.00 0.00 76 999.9
20260505090545 60 155 2.6 7.8 0.00 0.00 0.00 76 1000.0
20260505090051 60 157 2.6 7.8 0.00 0.00 0.00 77 1000.2
20260505085545 60 176 0.9 7.0 0.00 0.00 0.00 77 1000.2
20260505085044 60 173 1.7 7.0 0.00 0.00 0.00 77 1000.1
20260505084543 61 163 0.9 4.3 0.00 0.00 0.00 77 1000.2
20260505084041 61 180 2.6 4.3 0.00 0.00 0.00 77 1000.4
20260505083542 61 192 1.7 4.3 0.00 0.00 0.00 77 1000.4
20260505083049 61 153 0.9 4.3 0.00 0.00 0.00 76 1000.3
20260505082539 62 166 2.6 5.2 0.00 0.00 0.00 75 1000.5
20260505082039 62 207 2.6 7.8 0.00 0.00 0.00 75 1000.4
20260505081546 62 195 2.6 7.8 0.00 0.00 0.00 75 1000.5
20260505081040 62 148 3.5 9.6 0.00 0.00 0.00 75 1000.5
20260505080538 62 182 4.3 9.6 0.00 0.00 0.00 75 1000.6
20260505080040 62 154 3.5 8.7 0.00 0.00 0.00 76 1000.7
20260505075537 62 156 3.5 10.4 0.00 0.00 0.00 76 1000.6
20260505075036 62 181 4.3 13.0 0.00 0.00 0.00 76 1000.8
20260505074541 62 192 4.3 13.0 0.00 0.00 0.00 76 1000.8
20260505074035 62 205 5.2 12.2 0.00 0.00 0.00 76 1000.8
20260505073532 63 215 3.5 12.2 0.00 0.00 0.00 74 1000.7
20260505073032 64 207 2.6 10.4 0.00 0.00 0.00 70 1000.5
20260505072530 64 236 6.1 12.2 0.00 0.00 0.00 68 1000.7
20260505072028 65 182 5.2 15.6 0.00 0.00 0.00 66 1000.7
20260505071534 65 194 7.8 18.2 0.00 0.00 0.00 64 1000.9
20260505071028 65 142 7.8 12.2 0.00 0.00 0.00 64 1000.8
20260505070527 65 236 5.2 13.9 0.00 0.00 0.00 63 1000.8
20260505070033 65 192 7.0 13.9 0.00 0.00 0.00 62 1000.8
20260505065527 65 219 4.3 11.3 0.00 0.00 0.00 63 1000.7
20260505065026 65 174 3.5 11.3 0.00 0.00 0.00 62 1000.8
20260505064533 66 229 5.2 11.3 0.00 0.00 0.00 62 1000.8
20260505064024 65 151 4.3 9.6 0.00 0.00 0.00 62 1000.8
20260505063524 65 150 3.5 13.9 0.00 0.00 0.00 62 1000.8
20260505063024 65 198 3.5 13.0 0.00 0.00 0.00 62 1001.0
20260505062524 65 234 5.2 13.0 0.00 0.00 0.00 62 1000.9
20260505062023 65 154 4.3 12.2 0.00 0.00 0.00 62 1000.8
20260505061534 65 171 3.5 9.6 0.00 0.00 0.00 62 1000.8
20260505061023 65 203 2.6 9.6 0.00 0.00 0.00 61 1000.8
20260505060521 65 209 5.2 8.7 0.00 0.00 0.00 61 1000.7
20260505060028 65 192 2.6 7.8 0.00 0.00 0.00 61 1000.7
20260505055521 65 186 2.6 9.6 0.00 0.00 0.00 60 1000.7
20260505055021 65 243 3.5 10.4 0.00 0.00 0.00 60 1000.8
20260505054620 66 177 2.6 10.4 0.00 0.00 0.00 60 1000.8
20260505054022 65 146 4.3 8.7 0.00 0.00 0.00 59 1000.8
20260505053518 65 165 3.5 7.8 0.00 0.00 0.00 59 1000.8
20260505053021 65 209 4.3 10.4 0.00 0.00 0.00 58 1000.9
20260505052518 66 136 3.5 10.4 0.00 0.00 0.00 58 1000.7
20260505052018 66 157 3.5 9.6 0.00 0.00 0.00 58 1000.7
20260505051517 66 219 3.5 10.4 0.00 0.00 0.00 57 1000.7
20260505051017 66 143 3.5 8.7 0.00 0.00 0.00 57 1000.7
20260505050521 66 158 4.3 13.0 0.00 0.00 0.00 57 1000.7
20260505041513 65 167 4.3 9.6 0.00 0.00 0.00 56 1001.0
20260505041009 65 180 4.3 9.6 0.00 0.00 0.00 56 1001.2
20260505040508 65 188 3.5 13.0 0.00 0.00 0.00 55 1001.2
20260505040011 65 200 4.3 14.8 0.00 0.00 0.00 55 1001.5
20260505035506 65 215 4.3 14.8 0.00 0.00 0.00 56 1001.6
20260505035006 65 211 5.2 14.8 0.00 0.00 0.00 54 1001.1
20260505034505 64 157 5.2 14.8 0.00 0.00 0.00 50 1001.2
20260505034007 63 155 4.3 13.9 0.00 0.00 0.00 51 1001.1
20260505033508 61 247 4.3 8.7 0.00 0.00 0.00 54 1001.2
20260505033005 60 165 1.7 5.2 0.00 0.00 0.00 56 1001.1
20260505032505 59 160 1.7 5.2 0.00 0.00 0.00 59 1001.1
20260505032004 58 170 1.7 4.3 0.00 0.00 0.00 61 1001.1
20260505031504 58 166 1.7 4.3 0.00 0.00 0.00 63 1001.2
20260505031005 57 156 0.9 2.6 0.00 0.00 0.00 65 1001.2
20260505030504 57 156 0.9 2.6 0.00 0.00 0.00 67 1001.2
20260505030004 56 156 0.9 2.6 0.00 0.00 0.00 67 1001.2
20260505025506 56 156 0.9 2.6 0.00 0.00 0.00 65 1001.2
20260505025004 56 156 0.9 2.6 0.00 0.00 0.00 68 1001.1
20260505024508 56 156 0.9 2.6 0.00 0.00 0.00 69 1001.1
20260505024002 56 156 0.9 2.6 0.00 0.00 0.00 69 1001.2
20260505023503 56 156 0.9 2.6 0.00 0.00 0.00 69 1001.3
20260505023003 56 156 0.9 2.6 0.00 0.00 0.00 68 1001.3
20260505022506 55 156 1.7 2.6 0.00 0.00 0.00 69 1001.4
20260505022004 55 156 0.9 4.3 0.00 0.00 0.00 68 1001.4
20260505021503 55 156 1.7 4.3 0.00 0.00 0.00 69 1001.6
20260505021004 55 156 1.7 4.3 0.00 0.00 0.00 69 1001.5
20260505020502 55 156 1.7 4.3 0.00 0.00 0.00 69 1001.7
20260505020002 55 156 1.7 4.3 0.00 0.00 0.00 68 1001.7
20260505015502 56 156 1.7 4.3 0.00 0.00 0.00 68 1001.8
20260505015001 56 156 1.7 4.3 0.00 0.00 0.00 67 1001.8
20260505014501 56 155 1.7 4.3 0.00 0.00 0.00 66 1001.8
20260505014003 56 155 2.6 4.3 0.00 0.00 0.00 66 1001.7
20260505013501 57 152 2.6 4.3 0.00 0.00 0.00 65 1001.5
20260505013000 56 149 2.6 4.3 0.00 0.00 0.00 65 1001.6
20260505012600 56 144 1.7 3.5 0.00 0.00 0.00 66 1001.5
20260505012100 56 117 1.7 2.6 0.00 0.00 0.00 65 1001.5
20260505011601 56 117 1.7 2.6 0.00 0.00 0.00 65 1001.5
20260505011102 56 117 1.7 2.6 0.00 0.00 0.00 67 1001.5
20260505010559 57 117 0.9 2.6 0.00 0.00 0.00 68 1001.5
20260505010059 57 117 0.9 1.7 0.00 0.00 0.00 66 1001.4
20260505005559 57 117 0.9 1.7 0.00 0.01 0.00 63 1001.4
20260505005059 57 117 0.9 1.7 0.00 0.01 0.00 63 1001.4
20260505004557 58 117 0.9 1.7 0.00 0.01 0.00 61 1001.4
20260505004057 58 117 0.9 1.7 0.00 0.01 0.00 60 1001.4
20260505003556 58 117 0.9 1.7 0.00 0.01 0.00 61 1001.5
20260505003058 58 116 0.9 1.7 0.00 0.01 0.00 61 1001.4
20260505002556 58 116 0.9 2.6 0.00 0.01 0.00 59 1001.4
20260505002057 58 116 0.9 2.6 0.00 0.01 0.00 59 1001.5
20260505001557 58 58 0.9 1.7 0.00 0.01 0.00 57 1001.5
20260505001056 59 58 0.0 2.6 0.00 0.01 0.00 59 1001.5
20260505000555 59 58 0.0 2.6 0.00 0.01 0.00 60 1001.5
20260505000106 60 58 0.9 2.6 0.00 0.01 0.00 53 1001.5
20260504235555 60 58 0.0 3.5 0.00 0.01 0.00 51 1001.3
20260504235056 60 58 1.7 5.2 0.00 0.01 0.00 50 1001.3
20260504234622 62 53 1.7 5.2 0.00 0.01 0.00 49 1001.4
20260504234054 63 69 1.7 5.2 0.00 0.01 0.00 45 1001.4
20260504233554 67 46 2.6 7.0 0.00 0.01 0.00 41 1001.3
20260504233057 71 35 1.7 7.0 0.00 0.01 0.00 37 1001.3
20260504232554 74 185 0.9 6.1 0.00 0.01 0.00 34 1001.3
20260504232054 74 232 2.6 6.1 0.00 0.01 0.00 33 1001.2
20260504231602 74 223 0.9 7.0 0.00 0.01 0.00 33 1001.1
20260504231054 74 221 3.5 10.4 0.00 0.01 0.00 33 1001.1
20260504230558 74 232 7.0 12.2 0.00 0.01 0.00 31 1001.2
20260504230057 74 227 6.1 9.6 0.00 0.01 0.00 32 1001.1
20260504225654 74 225 4.3 9.6 0.00 0.01 0.00 33 1001.2
20260504225053 74 215 6.1 10.4 0.00 0.01 0.00 32 1001.1
20260504224552 74 228 4.3 7.8 0.00 0.01 0.00 32 1000.9
20260504224056 75 218 4.3 8.7 0.00 0.01 0.00 31 1000.9
20260504223552 74 246 3.5 10.4 0.00 0.01 0.00 32 1001.0
20260504223050 74 219 4.3 10.4 0.00 0.01 0.00 32 1001.1
20260504222549 75 256 4.3 9.6 0.00 0.01 0.00 34 1001.2
20260504222049 75 221 2.6 12.2 0.00 0.01 0.00 33 1001.1
20260504221557 75 248 5.2 12.2 0.00 0.01 0.00 32 1001.2
20260504221049 75 225 7.0 11.3 0.00 0.01 0.00 32 1001.2
20260504220548 75 222 4.3 8.7 0.00 0.01 0.00 35 1001.1
20260504220048 75 215 3.5 7.8 0.00 0.01 0.00 33 1001.1
20260504215548 75 150 2.6 12.2 0.00 0.01 0.00 34 1001.1
20260504215046 75 211 2.6 12.2 0.00 0.01 0.00 35 1001.2
20260504214545 75 232 4.3 11.3 0.00 0.01 0.00 35 1001.4
20260504214044 75 234 4.3 11.3 0.00 0.01 0.00 35 1001.3
20260504213544 74 188 7.0 10.4 0.00 0.01 0.00 33 1001.4
20260504213043 74 238 4.3 13.9 0.00 0.01 0.00 36 1001.4
20260504212544 74 246 6.1 13.9 0.00 0.01 0.00 35 1001.5
20260504212041 74 221 7.0 13.9 0.00 0.01 0.00 34 1001.4
20260504211549 74 227 8.7 13.9 0.00 0.01 0.00 34 1001.5
20260504211041 74 138 5.2 13.0 0.00 0.01 0.00 34 1001.5
20260504210541 74 163 4.3 13.0 0.00 0.01 0.00 36 1001.7
20260504210059 73 209 6.1 18.2 0.00 0.01 0.00 36 1001.7
20260504205539 73 245 9.6 18.2 0.00 0.01 0.00 35 1001.7
20260504205042 73 236 7.0 19.1 0.00 0.01 0.00 35 1001.7
20260504204547 73 229 9.6 19.1 0.00 0.01 0.00 36 1001.7
20260504204038 72 234 9.6 16.5 0.00 0.01 0.00 35 1001.6
20260504203539 72 231 7.0 16.5 0.00 0.01 0.00 37 1001.7
20260504203043 73 230 7.0 16.5 0.00 0.01 0.00 36 1001.8
20260504202537 73 220 3.5 16.5 0.00 0.01 0.00 38 1001.8
20260504202037 73 237 8.7 16.5 0.00 0.01 0.00 35 1001.9
20260504201540 73 232 9.6 18.2 0.00 0.01 0.00 35 1002.0
20260504201035 73 252 9.6 18.2 0.00 0.01 0.00 36 1002.1
20260504200534 73 248 10.4 15.6 0.00 0.01 0.00 35 1002.2
20260504200034 74 202 4.3 12.2 0.00 0.01 0.00 37 1002.1
20260504195534 73 242 5.2 14.8 0.00 0.01 0.00 38 1002.3
20260504195033 73 241 6.1 14.8 0.00 0.01 0.00 37 1002.2
20260504194548 72 244 5.2 13.9 0.00 0.01 0.00 37 1002.4
20260504194030 73 246 7.8 18.2 0.00 0.01 0.00 35 1002.5
20260504193529 72 156 6.1 18.2 0.00 0.01 0.00 37 1002.6
20260504193030 72 241 11.3 17.4 0.00 0.01 0.00 37 1002.7
20260504192527 72 242 9.6 14.8 0.00 0.01 0.00 37 1002.7
20260504192029 71 243 8.7 17.4 0.00 0.01 0.00 38 1002.9
20260504191532 72 235 10.4 19.1 0.00 0.01 0.00 38 1002.8
20260504191025 72 239 9.6 19.1 0.00 0.01 0.00 39 1002.9
20260504190525 71 220 12.2 18.2 0.00 0.01 0.00 39 1003.0
20260504190024 71 280 9.6 15.6 0.00 0.01 0.00 38 1003.0
20260504185527 71 252 7.0 19.1 0.00 0.01 0.00 41 1003.1
20260504185024 70 222 10.4 25.2 0.00 0.01 0.00 41 1003.1
20260504184528 70 266 10.4 25.2 0.00 0.01 0.00 41 1003.3
20260504184022 71 263 12.2 19.1 0.00 0.01 0.00 40 1003.3
20260504183523 71 221 7.8 16.5 0.00 0.01 0.00 42 1003.4
20260504183019 70 245 8.7 16.5 0.00 0.01 0.00 42 1003.4
20260504182518 70 273 8.7 16.5 0.00 0.01 0.00 43 1003.4
20260504182018 70 245 12.2 18.2 0.00 0.01 0.00 43 1003.5
20260504181519 70 218 7.8 19.1 0.00 0.01 0.00 44 1003.6
20260504181018 69 235 13.0 18.2 0.00 0.01 0.00 44 1003.6
20260504180518 70 271 10.4 16.5 0.00 0.01 0.00 42 1003.6
20260504180019 70 200 7.8 13.0 0.00 0.01 0.00 44 1003.7
20260504175515 70 255 8.7 13.0 0.00 0.01 0.00 45 1003.6
20260504175014 69 240 5.2 12.2 0.00 0.01 0.00 47 1003.6
20260504174512 68 218 4.3 15.6 0.00 0.01 0.00 48 1003.7
20260504174012 68 277 7.8 13.0 0.00 0.01 0.00 45 1003.8
20260504173511 68 260 8.7 13.0 0.00 0.01 0.00 46 1003.9
20260504173015 69 252 6.1 17.4 0.00 0.01 0.00 46 1003.9
20260504172510 68 244 7.8 20.9 0.00 0.01 0.00 47 1004.1
20260504172009 68 257 11.3 20.9 0.00 0.01 0.00 46 1004.1
20260504171509 67 209 10.4 18.2 0.00 0.01 0.00 46 1004.0
20260504171012 67 237 7.8 16.5 0.00 0.01 0.00 47 1004.0
20260504170509 67 227 7.8 16.5 0.00 0.01 0.00 48 1004.2
20260504151046 63 238 3.5 12.2 0.00 0.01 0.00 53 1004.8
20260504150547 63 202 5.2 12.2 0.00 0.01 0.00 51 1004.9
20260504141037 60 239 8.7 16.5 0.00 0.01 0.00 51 1005.0
20260504140537 60 196 5.2 13.9 0.00 0.01 0.00 52 1005.0
20260504130527 58 213 7.0 13.9 0.00 0.01 0.00 52 1005.5
20260504110507 53 262 3.5 8.7 0.00 0.01 0.00 55 1005.5